Location: Beekmeers
(50.8953°N, 3.6968°E)
Time: 13:02:23
(UTC+00:00)

SENTINEL 1B - Pass Details

Date: 15 October 2025
Orbit: 561 x 585 km, 98.1° (Epoch: 16 November)

Event Time Altitude Azimuth Distance (km) Brightness Sun altitude
Exits shadow 19:29:20 32° 5° (N) 1,016 6.5 -25.3°
Drops below altitude 10° 19:31:44 10° 352° (N) 1,925 8.2 -25.6°
Sets 19:33:55 0° 349° (N) 2,828 9.1 -26.0°
